Wind_Speed
59 59 60 61 62 61 61 61 61 61 61 61 60 60 60 60 61 62 63 64 65 65 66 66 67 66 66 65 65 65 66 66 67 67 67 67 68 68 69 69 69 69 70 70 72 72 72 71 70 68 65 62 59 55 52 52 52 48 43 39 38 38 36 33 31 31 34 34 29 26 26 26 26 24 24 24 25 25 25 24 24 22 20 18 12
59 60 60 61 62 62 62 62 62 63 64 63 62 62 62 62 62 63 64 65 66 67 67 68 68 68 67 67 67 67 67 68 68 68 68 68 68 69 69 70 70 70 70 71 71 71 70 69 67 64 61 58 56 52 51 51 49 44 40 38 37 35 33 31 30 33 34 31 26 26 26 25 24 24 25 25 24 24 23 22 21 19 18 17 13
60 61 61 62 63 63 63 63 64 65 66 66 65 64 64 64 64 65 66 67 68 68 69 70 70 70 69 69 69 69 69 69 69 69 69 69 69 69 69 69 70 70 70 71 70 69 68 65 63 60 58 56 53 50 50 49 45 41 38 36 35 32 30 30 31 33 32 27 26 26 25 25 24 25 25 23 22 24 23 18 14 13 15 16 14
62 62 63 64 64 65 65 65 65 66 67 67 66 66 65 65 65 66 67 68 69 69 70 71 71 71 71 71 71 70 70 70 70 70 69 69 69 69 69 69 70 70 70 70 69 67 65 62 60 58 56 53 49 49 49 46 42 39 36 34 31 29 28 30 32 32 28 26 26 26 25 25 24 25 23 20 21 23 23 17 11 8 12 17 15
64 66 67 67 66 66 66 66 66 67 67 68 67 66 65 65 66 68 68 69 70 71 72 72 72 73 73 73 72 71 71 71 70 70 69 69 68 68 68 69 69 70 69 68 66 64 62 60 58 56 53 49 47 48 46 44 41 37 33 30 27 27 28 31 31 27 26 26 27 26 25 24 25 25 20 19 22 23 22 19 14 9 11 17 15
67 68 69 69 68 68 68 67 67 67 68 68 68 67 66 66 67 69 69 70 71 72 73 73 73 73 74 73 73 72 71 71 70 70 69 68 67 67 68 68 69 68 66 65 63 61 60 59 57 53 49 47 48 46 44 42 38 33 29 26 25 27 30 30 27 24 25 26 26 26 24 24 25 22 19 19 22 24 23 21 18 12 13 15 14
68 69 70 70 70 69 69 68 68 68 68 68 68 68 68 67 69 70 70 71 72 73 74 73 73 74 74 74 73 72 72 71 70 69 68 67 67 67 67 67 66 65 63 62 60 60 59 57 53 49 47 47 46 43 42 39 34 30 26 24 25 28 30 27 23 22 24 25 25 24 23 23 23 19 18 20 22 24 25 24 21 17 14 13 12
69 70 70 70 70 69 69 69 69 69 68 68 68 69 69 69 70 70 71 72 73 74 74 73 73 73 73 73 73 72 71 70 69 68 67 67 66 66 66 64 63 62 61 60 59 59 56 53 49 47 46 46 43 41 39 35 30 26 24 25 27 29 26 22 21 22 23 24 24 23 22 22 21 19 19 21 23 25 25 25 24 19 15 12 12
71 71 72 71 70 70 70 70 70 69 69 68 68 69 70 70 70 71 71 72 73 73 73 73 73 73 73 72 72 71 70 70 68 67 67 66 65 65 63 61 60 60 60 59 57 54 51 49 47 46 45 43 42 40 37 32 26 24 25 27 29 26 22 20 20 21 23 24 23 22 21 21 20 19 19 22 24 25 26 26 25 20 15 12 11
72 72 73 72 71 71 71 71 70 70 69 68 68 69 70 71 71 71 72 73 73 73 73 72 72 72 72 71 71 70 69 68 67 66 65 64 63 62 61 59 58 59 58 54 51 49 48 47 46 45 42 41 41 39 34 28 24 24 26 28 27 23 19 18 19 21 23 23 22 21 20 20 19 18 20 22 24 26 27 26 25 21 15 12 11
73 73 73 73 72 72 72 71 70 69 69 69 69 69 70 71 71 72 73 73 73 72 72 72 71 71 70 70 69 69 68 67 66 65 63 62 61 60 59 58 56 55 52 48 46 46 46 46 45 43 41 40 40 37 31 26 24 25 26 27 25 21 18 18 19 21 23 23 22 20 20 19 17 18 20 22 24 26 26 26 25 21 15 11 11
73 73 73 72 72 72 72 71 70 69 68 68 69 69 70 71 71 72 73 72 72 72 71 71 70 70 69 68 68 67 66 65 64 63 61 59 59 58 57 55 52 48 46 45 45 46 46 46 45 42 40 39 38 34 29 25 25 25 24 24 23 20 18 17 19 21 23 23 22 21 19 18 17 17 20 22 23 25 26 25 25 21 15 11 11
71 71 71 71 71 71 70 69 68 68 68 68 69 69 70 70 71 71 71 71 71 70 70 70 69 68 68 67 66 66 65 64 63 62 60 58 57 56 54 51 47 44 45 45 45 47 47 46 45 42 40 37 35 31 27 26 24 22 22 23 23 20 18 18 19 21 23 24 23 22 20 19 18 18 20 21 23 25 26 25 24 21 15 11 11
70 70 69 68 68 68 67 67 67 67 67 68 69 69 69 69 69 69 69 69 69 69 69 68 68 67 66 66 65 65 64 63 62 61 59 57 55 53 50 47 45 45 46 45 46 47 47 46 44 42 39 36 32 28 26 25 21 19 21 23 23 21 19 18 19 21 23 24 23 22 20 19 18 18 20 22 23 25 26 25 24 21 15 11 10
70 70 69 68 67 66 66 66 66 66 67 67 67 68 68 68 68 67 67 67 68 68 68 67 67 66 66 65 65 64 64 63 61 60 58 55 52 49 47 46 47 47 46 45 46 46 46 45 43 41 38 35 31 26 24 22 19 20 23 24 24 22 21 19 19 21 22 23 22 22 21 19 18 18 21 22 23 25 26 25 24 22 15 11 10
71 70 69 68 66 66 65 65 66 66 67 66 66 67 67 67 67 67 67 67 67 67 67 67 66 66 65 65 65 64 63 62 60 58 55 52 49 47 46 47 48 47 46 45 45 45 44 43 42 40 37 34 30 26 23 21 20 22 24 25 25 24 22 20 20 20 21 21 21 21 20 18 17 19 21 22 23 24 25 25 24 22 15 11 10
71 71 70 68 67 66 66 66 66 66 66 66 67 67 67 67 67 68 68 68 68 68 67 67 66 65 65 65 64 63 62 60 58 55 52 49 48 46 46 47 47 46 44 43 43 43 42 42 42 39 35 33 31 26 22 21 21 23 25 25 25 25 23 21 20 20 20 20 20 20 19 17 17 19 22 23 23 24 24 24 23 21 16 11 10
72 71 70 69 68 67 67 67 67 67 67 68 68 68 68 68 68 68 68 68 68 67 67 66 65 64 64 64 63 61 59 57 54 53 51 49 47 46 47 46 45 43 42 42 42 41 41 41 41 37 34 33 30 27 24 23 23 24 25 26 26 25 24 21 20 20 20 19 19 19 18 17 18 20 22 23 24 23 23 23 22 21 16 11 10
73 72 71 70 69 68 68 68 68 69 69 69 69 69 69 69 69 69 69 69 68 67 66 65 64 63 63 62 60 57 56 54 52 51 49 47 46 46 46 45 43 41 41 40 40 40 41 40 38 36 34 33 30 27 25 24 24 26 27 27 27 26 24 22 21 21 20 19 18 18 17 18 19 21 23 24 24 24 22 22 21 21 17 12 10
74 73 72 71 71 70 70 70 70 70 70 70 70 70 70 70 70 70 69 69 68 67 65 64 63 62 61 59 57 55 54 53 51 48 46 45 45 45 45 44 41 40 40 39 39 40 40 38 36 35 34 32 30 28 26 25 26 27 28 28 28 27 24 23 23 22 21 19 18 18 18 18 20 22 23 24 24 24 22 21 21 20 17 12 11
74 74 73 72 72 72 72 71 71 71 71 71 71 71 71 71 71 70 70 69 67 65 63 62 60 59 58 56 54 53 52 51 47 45 44 44 45 44 43 42 40 40 39 39 39 40 39 37 35 35 34 33 31 29 27 26 27 29 30 29 29 28 26 24 24 23 21 19 18 18 19 19 20 22 24 23 24 23 21 20 20 19 16 12 11
75 74 74 74 74 73 73 72 72 72 72 72 72 72 71 71 70 69 68 66 64 61 60 59 57 55 54 52 50 49 48 47 44 43 43 44 44 43 41 41 41 40 39 39 39 39 37 36 35 35 35 33 31 30 29 29 29 31 32 31 30 29 27 25 24 23 21 20 19 18 20 20 21 23 24 23 22 22 21 19 19 18 15 12 11
74 74 74 74 74 74 74 73 73 73 72 71 71 70 69 68 67 65 63 61 58 55 54 54 52 50 48 47 46 46 45 43 43 43 43 43 43 42 41 40 41 40 40 40 39 37 36 35 35 35 35 34 33 32 32 32 32 33 33 31 30 29 27 26 23 21 20 20 20 19 20 21 22 23 23 22 20 20 20 19 18 16 13 11 10
72 72 72 73 73 73 73 72 71 70 68 66 64 63 62 62 61 59 57 54 52 50 49 48 46 44 43 42 42 43 42 41 42 42 43 43 42 41 41 40 40 40 40 39 37 35 34 33 34 34 34 35 35 35 35 35 35 34 33 31 29 28 26 25 22 20 19 19 20 20 21 21 21 22 22 20 19 19 19 18 17 14 11 11 10
68 68 68 69 70 69 68 66 62 59 56 55 54 55 57 57 56 54 51 49 47 44 42 41 41 40 40 39 40 41 40 40 41 42 42 42 41 41 41 40 40 39 39 38 37 35 33 32 32 33 34 35 36 37 36 36 36 34 32 30 27 25 23 22 21 20 19 19 20 21 21 20 20 21 21 20 18 18 18 18 16 13 10 10 11
64 63 64 64 63 61 58 53 48 46 45 45 46 48 50 50 50 49 46 42 39 38 39 39 40 40 39 39 39 40 39 39 40 41 41 41 41 41 41 40 39 39 38 37 36 35 33 32 32 33 34 35 36 37 37 36 35 33 30 27 23 21 20 20 20 21 20 20 20 20 19 19 20 21 21 19 17 17 18 18 16 12 9 9 11
58 58 58 57 55 50 46 42 40 40 39 38 38 39 40 40 40 39 37 36 38 40 41 41 41 40 39 39 39 39 39 39 40 40 40 41 41 41 40 40 39 37 36 35 34 33 33 33 33 33 34 35 36 37 37 36 33 30 27 22 19 17 18 19 20 21 21 20 19 18 18 19 20 20 20 19 17 18 18 18 15 12 9 9 10
53 53 53 53 50 45 42 42 42 42 40 38 38 38 36 33 32 33 37 41 43 43 42 42 41 40 40 39 39 39 38 39 39 40 40 40 40 40 39 38 36 34 32 31 30 30 32 32 32 32 33 34 36 36 35 32 29 24 21 18 17 17 17 18 20 20 19 19 18 18 19 19 20 21 21 19 18 19 18 17 15 13 11 10 11
48 48 49 50 47 45 47 48 46 45 46 46 47 46 41 38 39 43 46 47 44 42 41 41 40 40 39 39 38 38 38 39 39 39 39 39 39 38 37 35 32 29 27 26 27 29 31 31 30 30 31 32 33 32 30 26 22 19 18 18 18 17 17 17 18 18 19 20 21 21 21 21 21 22 21 21 20 18 17 16 15 13 11 10 11
44 46 48 47 45 45 48 49 48 50 52 54 53 50 48 48 50 50 49 46 43 41 40 39 39 39 38 38 38 38 38 38 38 38 38 38 37 35 32 29 27 25 25 26 28 29 29 28 26 26 27 28 28 26 23 21 18 16 17 18 18 17 17 18 19 21 23 24 25 24 24 22 22 22 22 21 19 17 15 15 14 13 12 11 11
43 44 43 44 45 46 48 48 49 52 54 56 55 53 53 53 52 51 49 46 43 41 39 38 38 37 37 38 37 37 37 36 36 36 35 34 32 29 27 25 24 24 25 26 26 26 26 24 23 23 24 23 22 20 18 17 16 17 18 19 19 20 21 23 25 27 28 29 29 27 25 24 23 22 22 20 17 15 15 15 14 12 11 10 11
39 40 40 41 42 45 49 51 52 53 54 55 55 55 54 54 53 51 48 45 42 39 38 37 36 37 37 36 36 35 35 35 34 32 30 28 26 25 24 23 23 23 24 24 23 22 22 21 20 19 19 18 16 15 15 15 17 19 21 23 24 25 27 29 31 32 32 31 30 27 25 24 23 22 21 19 16 15 15 15 13 11 10 11 12
31 34 38 35 34 38 41 45 50 52 53 54 54 54 53 52 51 48 45 43 40 38 37 36 35 35 35 35 34 33 33 32 30 27 25 23 22 22 22 22 22 22 22 21 20 20 20 19 17 16 15 14 14 15 16 18 21 23 26 28 29 30 31 32 32 31 30 28 26 25 24 24 22 21 20 17 15 15 15 15 13 12 12 12 13
28 30 33 31 31 36 35 36 40 42 43 44 45 45 43 42 41 41 40 39 37 36 35 34 34 34 33 32 31 30 29 27 24 22 21 20 20 21 21 22 22 21 21 20 20 20 20 18 17 15 14 14 16 18 20 22 24 26 27 27 27 27 27 28 29 28 27 27 25 24 24 23 21 19 18 17 15 15 15 15 15 14 15 15 15
27 27 31 33 34 37 36 35 36 35 35 34 33 33 34 34 34 35 35 34 34 33 33 32 32 31 30 29 28 27 25 22 21 20 20 20 21 21 22 22 22 22 21 20 19 19 19 18 17 15 14 14 15 16 18 19 21 22 23 23 24 24 26 28 28 27 27 26 24 22 21 18 17 17 16 16 16 15 16 16 17 17 17 16 16
32 29 32 37 38 39 38 37 38 35 32 31 30 30 31 31 31 31 30 31 31 31 31 30 29 27 26 26 25 23 22 20 20 20 20 20 21 21 22 23 23 22 21 19 19 18 18 19 18 15 14 13 12 12 13 15 17 19 21 23 23 24 24 24 23 23 22 21 19 17 15 14 14 15 15 15 15 15 16 17 18 18 17 16 15
39 35 35 39 40 39 38 39 39 36 33 32 32 30 28 28 26 26 26 27 28 28 27 27 25 25 25 24 23 21 21 21 20 20 20 20 21 22 23 23 22 22 21 20 19 18 18 19 20 18 15 12 10 9 10 13 16 18 19 20 19 18 17 16 15 14 14 13 11 10 11 12 12 13 13 12 13 14 15 17 17 16 15 15 15
45 42 42 41 41 40 41 42 39 36 34 33 32 30 28 26 23 22 22 23 24 24 24 24 24 24 23 22 21 21 21 21 21 21 20 20 21 23 22 22 23 22 21 21 19 18 18 20 21 20 17 12 9 8 10 14 15 15 14 13 12 12 11 9 9 8 8 8 6 6 7 9 11 11 11 11 12 13 14 16 16 16 15 15 16
47 49 49 48 47 47 48 47 43 40 38 36 35 33 30 27 23 21 21 21 21 22 22 23 23 22 21 21 21 22 21 21 21 21 20 21 23 24 23 24 24 23 22 20 19 19 20 20 21 21 19 15 11 10 10 11 10 10 10 11 9 9 8 5 5 4 5 6 6 7 7 7 9 11 12 13 14 15 17 18 18 17 16 16 17
49 49 51 53 54 55 53 51 47 44 42 39 37 36 34 30 27 26 24 24 23 24 23 23 22 22 21 22 22 22 22 21 20 20 21 23 25 25 25 25 24 23 22 20 19 20 20 21 21 20 20 18 15 11 7 7 8 10 12 13 12 10 9 5 3 3 5 7 7 9 9 9 10 12 14 16 18 19 20 20 18 18 18 18 19
55 52 52 54 57 60 58 53 50 47 44 41 38 37 38 36 34 32 30 28 27 26 25 23 23 23 24 24 24 23 22 22 21 22 23 25 26 27 27 26 25 24 23 21 21 20 21 21 20 20 19 19 16 10 6 7 11 13 16 16 14 11 10 7 4 4 5 9 12 13 13 13 14 15 16 17 18 18 18 17 17 17 18 19 19
61 61 60 58 57 59 58 54 52 51 48 45 44 42 42 42 40 38 35 32 29 27 26 26 25 25 26 26 26 25 25 24 24 24 25 26 27 27 27 27 26 25 23 23 22 21 21 21 20 19 19 19 16 10 8 11 15 17 19 17 15 12 10 8 6 5 7 10 13 16 16 16 16 16 16 16 15 15 15 16 16 16 16 17 17
63 65 66 64 60 58 57 55 54 54 53 53 51 49 48 47 46 44 41 37 33 30 28 28 27 27 27 27 27 27 27 27 26 26 27 27 27 27 28 28 26 25 24 23 22 21 21 21 20 20 19 18 16 11 11 15 18 20 20 19 16 13 11 9 7 6 8 11 13 16 18 18 18 18 17 16 16 16 17 18 19 20 19 19 19
63 65 67 67 65 62 61 60 58 57 57 56 55 54 53 53 51 49 45 42 40 36 31 30 30 29 29 29 29 29 30 29 28 28 28 28 28 28 29 28 27 26 26 24 23 22 23 23 22 21 19 18 16 13 14 17 20 22 21 20 18 15 13 12 10 7 8 11 13 16 18 19 19 20 20 20 21 21 21 22 23 24 25 24 24
62 65 67 68 68 67 66 65 63 60 56 53 52 52 52 52 51 50 47 44 43 40 36 34 33 32 31 31 30 31 32 31 31 30 30 29 29 29 29 29 28 28 27 26 25 25 25 24 23 20 19 18 17 15 16 19 21 22 22 21 19 17 15 15 13 10 9 10 11 13 16 18 19 21 23 24 25 25 25 25 26 26 26 24 24
59 64 68 69 69 69 69 67 65 61 57 52 50 50 49 49 49 48 47 45 45 43 41 39 37 36 35 34 33 33 34 34 34 34 33 32 31 31 31 30 29 29 28 28 27 27 27 25 22 19 17 17 17 16 18 20 22 22 22 21 19 17 16 16 16 15 13 11 11 12 13 16 18 20 23 26 28 29 29 29 30 30 30 28 27
57 63 68 69 70 70 69 68 65 62 58 54 51 51 51 51 50 48 47 46 46 45 44 43 41 39 38 36 36 35 36 37 37 37 36 35 34 34 33 32 31 30 30 30 29 28 27 25 21 19 17 17 17 17 19 20 21 22 21 20 19 18 16 15 16 16 16 16 15 14 15 16 18 19 22 25 27 29 30 29 30 31 32 31 29
54 60 66 69 69 69 69 69 67 65 62 58 54 53 53 53 53 51 49 49 48 47 46 45 44 43 40 38 37 36 37 38 38 38 37 36 35 35 34 33 32 32 32 31 29 28 26 24 21 19 18 18 17 18 19 20 20 20 19 19 18 17 16 15 15 15 16 18 18 18 18 20 21 23 24 25 27 29 30 30 31 32 33 34 34
50 56 63 68 68 67 68 69 69 67 65 62 58 57 56 56 55 53 52 52 51 50 49 48 46 45 42 40 39 38 38 37 37 37 37 36 36 35 34 34 33 33 32 31 29 27 25 24 22 21 20 19 19 19 20 19 19 19 18 17 17 17 16 16 16 16 16 16 17 18 20 23 25 28 29 29 30 30 31 31 32 33 35 36 37
48 51 58 65 67 67 66 66 67 66 66 64 61 59 59 59 57 56 56 55 54 53 51 49 48 46 44 43 42 40 39 39 38 36 36 35 35 35 34 34 34 33 32 31 29 27 26 25 24 24 22 21 20 20 20 20 19 18 16 15 15 16 16 16 17 17 17 16 16 16 18 20 23 24 26 29 31 31 32 33 34 35 36 37 37
45 47 52 58 63 66 66 65 63 62 61 61 60 59 59 60 60 58 56 54 52 52 52 51 50 48 47 46 46 45 44 44 43 41 39 38 38 37 36 35 35 33 32 31 30 28 27 27 26 25 24 23 22 22 21 20 19 18 16 15 15 15 16 16 17 18 19 18 17 16 17 18 20 21 22 24 26 28 28 30 31 33 34 35 35
Wind_Direction
274 275 275 277 278 280 282 284 285 285 285 286 286 287 288 289 290 291 291 292 292 292 293 294 295 296 297 298 299 300 300 301 302 303 303 304 305 305 306 306 306 307 308 308 309 310 311 312 313 314 315 315 316 316 317 318 318 318 318 317 317 317 316 318 320 321 322 323 323 323 323 322 319 320 321 320 319 320 322 320 315 313 314 310 296
275 276 277 278 279 281 282 283 285 285 285 286 286 286 287 288 289 290 290 291 291 292 292 293 294 295 296 297 298 299 299 300 301 302 303 304 304 305 305 306 306 307 308 308 309 310 311 312 313 314 314 315 315 316 317 317 317 318 318 318 317 316 317 320 321 322 322 323 325 324 323 321 318 319 321 320 323 328 330 327 323 323 320 307 282
277 278 279 280 281 282 282 283 284 285 286 286 285 285 286 287 288 289 290 290 291 291 292 293 294 295 296 296 297 298 299 299 300 301 302 303 304 304 305 306 306 308 308 309 310 311 311 312 313 314 314 315 315 315 317 317 317 318 318 318 317 316 318 322 322 322 323 326 326 324 322 319 315 316 318 321 330 336 339 339 331 330 321 300 275
276 278 280 281 281 282 282 283 283 284 285 285 285 285 286 287 288 288 289 290 291 291 292 293 293 294 295 296 297 298 298 299 300 301 302 303 304 304 305 306 307 308 309 309 310 311 312 312 313 313 314 314 314 315 316 316 317 317 318 318 317 317 321 323 322 323 325 326 323 321 320 318 315 314 316 323 334 340 343 344 329 324 313 290 271
275 277 278 279 280 280 280 281 283 283 283 284 285 285 285 286 287 287 289 290 291 292 292 292 293 294 295 296 297 297 298 299 300 301 302 303 304 304 305 306 307 308 309 309 310 311 312 312 312 313 313 313 313 315 315 315 316 317 317 317 316 319 322 322 322 325 326 323 319 319 318 316 316 315 318 327 333 339 341 340 329 307 282 279 271
275 275 276 277 277 278 279 280 281 281 282 282 284 285 285 285 286 287 288 290 291 292 292 293 293 294 295 296 297 298 299 300 300 301 302 303 304 305 306 307 308 308 309 310 310 311 311 312 312 313 312 312 313 315 315 315 316 316 317 317 318 321 322 321 323 327 325 321 320 320 316 315 317 316 321 328 332 337 337 336 333 313 284 281 273
275 274 274 275 276 277 278 278 279 279 280 281 282 283 284 285 285 286 288 290 291 292 292 293 293 294 295 296 297 298 299 300 301 302 302 303 305 306 306 307 308 308 309 310 310 311 311 311 313 313 311 312 313 314 314 315 315 316 317 318 320 321 320 322 326 327 325 322 321 319 314 315 318 318 322 327 330 333 335 334 334 325 306 293 275
274 274 274 274 275 276 277 277 277 278 278 280 281 282 283 284 285 286 288 289 290 291 292 293 293 294 295 297 298 299 299 300 301 302 303 304 305 306 306 307 308 309 309 310 310 310 310 312 313 312 311 312 313 314 314 313 314 316 317 319 320 320 320 323 327 328 326 323 320 317 312 314 317 319 323 325 326 329 332 333 333 329 313 294 274
274 274 273 274 274 275 275 275 276 277 278 279 280 282 283 284 285 286 288 289 289 290 291 292 293 294 296 297 298 299 299 300 301 302 303 304 305 306 306 307 308 309 309 309 310 310 311 313 313 312 312 313 313 313 313 312 313 316 317 318 319 318 319 323 327 328 326 323 319 316 311 313 316 318 322 322 323 326 329 331 333 330 315 293 274
274 274 274 274 274 274 274 275 276 277 278 279 280 281 282 284 285 286 287 288 289 290 291 292 293 294 295 296 297 298 299 300 301 302 303 305 305 306 306 308 309 309 309 309 310 311 313 313 313 313 313 313 312 312 311 311 313 315 316 317 317 316 318 322 326 326 325 323 319 315 311 312 315 316 320 320 321 324 326 328 331 331 317 292 271
274 274 274 273 273 273 274 274 276 277 278 279 280 281 282 284 285 286 287 288 289 290 291 292 293 294 295 296 297 297 298 299 301 302 303 305 305 306 307 308 309 309 308 309 311 313 314 313 312 312 313 313 311 310 310 310 312 313 315 315 315 315 317 321 323 323 323 323 319 315 312 313 313 314 318 319 319 322 326 327 330 330 318 293 267
273 273 273 273 273 273 274 275 276 278 279 280 280 281 283 284 285 286 287 288 289 290 290 291 292 293 294 295 296 297 298 299 301 302 303 305 305 306 307 308 308 309 309 309 311 313 313 312 311 311 312 312 310 310 309 311 312 312 314 313 314 316 317 319 321 321 322 322 320 317 315 315 313 312 316 317 319 322 325 326 329 329 318 294 263
273 273 273 273 274 274 275 276 278 279 280 280 281 282 283 284 285 285 286 287 288 289 290 291 292 293 294 295 296 297 298 300 301 302 303 304 305 306 307 307 308 309 309 309 310 311 311 310 309 310 311 311 310 310 310 312 313 312 313 313 315 318 317 317 318 320 321 320 319 318 318 317 315 314 316 318 319 321 323 325 327 327 316 293 262
272 273 273 274 275 276 277 278 279 280 280 280 281 282 282 283 284 285 286 287 288 289 289 290 291 292 294 295 296 297 298 299 301 302 303 304 304 305 306 306 306 308 308 307 308 309 309 309 309 309 311 312 311 309 310 313 314 314 313 314 317 317 315 312 313 317 319 319 317 318 318 318 316 316 318 319 319 319 320 322 324 326 314 291 262
272 273 274 275 276 277 278 279 279 279 279 280 281 281 282 283 284 285 286 286 287 288 289 290 291 292 294 295 296 297 298 299 301 302 303 303 304 304 304 304 305 306 306 306 306 308 308 308 308 309 311 312 311 308 309 312 313 315 315 315 317 316 313 309 308 313 315 316 316 316 316 315 315 316 318 319 319 318 318 319 322 324 313 289 265
272 273 274 275 276 277 278 278 278 279 279 280 281 281 282 283 284 284 285 286 286 287 288 290 291 293 294 295 296 297 298 299 300 301 302 302 303 302 302 303 304 305 305 305 306 308 308 308 308 310 311 311 310 306 306 311 313 314 314 313 315 314 312 309 305 308 311 313 313 313 312 311 312 314 317 318 318 316 315 317 320 323 313 286 266
272 273 274 275 276 276 277 278 278 279 279 280 281 281 282 283 284 284 285 285 286 287 289 290 292 293 294 295 296 297 298 299 300 301 301 301 301 300 301 302 304 304 305 305 307 308 308 307 309 310 310 309 307 302 301 309 315 314 312 310 310 311 310 308 304 304 305 307 309 309 308 308 309 312 315 317 317 315 314 316 319 322 313 285 263
273 273 274 275 276 276 277 277 278 279 280 280 281 282 282 283 284 284 285 286 287 288 289 291 292 293 293 294 296 297 298 299 299 300 300 300 299 299 300 302 303 304 305 306 307 307 307 308 308 308 308 307 305 300 297 303 312 313 311 307 304 306 308 305 301 300 299 302 306 306 305 305 308 311 313 314 315 313 312 315 318 320 312 286 260
273 274 275 275 276 276 277 277 278 279 279 280 281 282 282 283 284 284 285 286 287 289 290 291 292 293 293 294 296 297 298 298 298 298 298 298 298 298 301 302 303 304 305 306 306 306 307 307 307 306 306 306 303 299 296 298 306 310 309 304 300 301 304 302 297 294 293 297 304 303 302 304 307 309 310 311 312 310 309 313 317 319 312 289 261
273 274 275 276 276 276 277 277 278 279 279 280 281 282 282 283 284 285 286 287 288 289 290 291 291 292 293 294 296 296 297 298 298 297 297 296 297 299 301 302 302 303 304 304 305 306 306 306 305 304 305 305 302 299 298 298 303 306 304 299 296 295 298 299 294 290 289 294 300 300 299 302 306 306 307 308 309 307 306 311 314 317 311 291 265
273 274 275 276 276 277 277 277 278 279 279 280 281 282 282 283 284 285 286 287 288 289 290 290 291 291 293 294 295 296 296 296 296 296 295 295 297 299 300 301 301 302 302 302 304 305 305 305 303 303 303 303 301 299 299 299 302 302 298 295 293 292 293 294 290 287 287 291 295 297 297 300 303 303 304 305 305 303 302 307 310 314 310 290 267
272 274 275 276 276 277 277 278 278 279 280 281 281 282 283 284 285 286 286 286 287 288 289 289 290 292 293 295 296 296 295 295 295 294 294 295 297 298 298 299 299 300 301 302 304 305 305 303 302 301 301 300 299 299 299 300 301 298 294 291 290 288 289 290 287 285 287 290 292 295 296 297 299 299 301 302 301 299 297 302 306 311 307 286 264
272 273 274 275 276 277 277 278 279 280 281 282 283 283 284 284 284 284 284 284 286 287 287 289 291 293 294 296 297 295 293 294 294 294 294 295 296 296 297 297 298 299 301 302 303 304 303 302 302 300 298 296 295 295 297 298 298 294 290 288 287 286 287 287 284 283 286 289 291 294 294 294 295 297 298 298 295 292 292 296 302 308 303 281 258
273 273 274 275 276 277 278 279 281 282 283 284 284 284 283 282 281 281 282 283 285 286 288 290 293 294 295 296 294 292 292 294 294 293 293 294 294 295 295 297 298 300 301 302 302 302 301 300 299 297 294 291 290 290 292 294 294 291 288 287 286 284 284 285 283 282 284 289 291 292 292 291 293 295 296 294 288 285 287 291 297 303 296 275 253
273 274 275 276 276 278 279 281 283 284 283 283 282 281 280 279 279 280 281 283 285 288 290 293 294 294 294 293 291 291 292 292 291 292 292 292 293 294 295 297 298 300 300 301 300 299 298 297 296 294 291 289 288 288 289 291 291 289 288 286 284 282 282 281 282 283 285 288 288 288 289 289 291 293 292 288 280 278 283 286 292 295 287 269 251
274 275 276 276 278 279 280 281 282 283 282 281 280 279 279 279 279 279 281 283 286 290 293 295 294 293 291 290 290 290 291 290 289 290 291 292 293 294 296 297 299 300 300 300 299 299 297 295 293 291 289 288 287 287 288 289 289 288 287 284 281 278 279 280 281 283 284 283 282 284 286 288 290 290 287 280 273 273 277 281 286 287 279 262 249
275 275 276 276 277 278 277 277 278 280 279 278 278 279 280 280 279 279 281 285 290 293 295 294 293 291 290 289 289 289 289 288 289 290 290 291 293 294 296 298 300 301 301 300 300 299 296 293 291 289 288 287 287 287 288 289 288 287 285 282 278 276 278 279 280 281 282 281 281 283 286 288 288 285 280 273 266 267 272 277 281 282 275 257 247
275 276 275 276 276 272 270 272 272 273 274 275 280 284 284 282 279 280 284 289 292 293 292 291 290 289 289 288 288 287 287 288 288 289 290 291 293 295 297 299 301 302 303 303 302 300 296 294 291 290 288 287 287 287 287 287 286 285 283 280 278 277 276 276 277 280 283 285 287 288 290 289 286 281 275 266 260 262 268 275 279 278 276 259 243
277 277 276 276 275 271 270 273 272 270 271 276 283 286 285 281 281 284 288 290 292 291 290 288 288 287 287 286 286 286 286 287 288 289 290 292 294 296 298 300 302 305 307 308 306 302 298 296 292 289 287 286 286 285 284 284 283 282 281 280 279 276 273 274 280 286 290 292 292 291 292 290 286 279 270 260 255 258 266 274 276 275 277 267 245
280 278 276 275 274 272 273 274 272 270 272 277 282 283 282 283 285 287 289 291 291 290 289 287 286 285 285 285 284 285 286 287 288 289 291 293 295 296 298 301 305 309 313 312 307 302 299 296 293 290 288 286 284 283 283 283 282 280 279 278 275 272 273 278 283 287 289 291 292 292 291 289 285 276 265 258 254 258 268 273 273 272 275 269 250
278 275 274 275 275 274 273 271 270 269 271 275 278 280 281 283 285 287 288 290 290 289 288 286 284 284 283 283 284 285 286 286 288 289 291 293 295 296 300 304 309 315 317 314 307 303 300 299 298 294 290 286 284 283 285 284 280 276 274 272 270 270 274 277 280 281 284 288 291 291 289 286 280 270 261 255 252 260 269 270 270 270 270 264 251
270 271 273 277 282 279 272 269 268 268 269 271 274 276 279 281 283 285 286 287 287 286 284 283 282 282 282 282 283 284 285 286 288 290 291 292 294 298 303 308 313 318 319 315 310 308 306 306 303 298 292 290 287 283 282 279 274 271 270 270 270 271 274 277 279 281 283 287 289 287 283 280 274 265 257 251 251 259 265 267 266 261 259 256 251
260 266 272 277 285 283 275 269 267 267 268 269 271 274 276 279 281 283 284 284 283 282 281 280 280 280 281 281 283 284 285 287 289 289 291 293 297 301 304 308 314 319 319 320 321 319 316 313 310 307 301 294 287 280 276 274 273 274 274 275 276 277 279 281 281 283 284 285 283 280 277 274 268 261 255 248 251 257 261 263 258 249 246 247 247
259 263 271 275 273 273 271 269 270 271 270 272 274 276 278 280 281 282 282 281 280 279 278 278 278 279 280 281 282 283 285 287 287 289 293 296 298 300 303 308 315 317 317 320 325 327 324 321 320 317 308 296 290 286 283 283 283 283 284 284 285 286 287 286 285 284 283 280 276 274 272 267 261 256 251 247 249 252 255 258 253 247 245 245 245
253 254 264 266 258 258 263 267 272 275 273 276 281 283 283 283 282 282 281 280 278 277 276 276 277 278 279 280 280 282 284 284 286 292 295 295 296 299 304 310 315 315 316 318 324 329 331 331 330 324 316 307 301 298 296 295 294 293 294 296 298 298 294 290 286 283 279 275 272 269 265 260 255 253 249 249 252 252 252 253 251 249 248 246 247
239 238 248 254 253 255 258 262 268 271 274 278 282 283 284 283 281 280 278 276 275 274 274 275 276 276 277 277 279 280 280 283 289 293 292 292 295 301 307 311 313 315 317 320 324 330 336 341 341 336 329 322 317 314 310 306 302 302 305 307 308 304 296 289 284 279 275 272 268 263 258 254 252 251 250 252 256 258 255 252 250 249 250 251 254
233 230 236 243 249 251 252 257 264 268 271 275 277 278 279 279 278 276 275 274 273 273 273 273 273 273 273 275 277 277 279 285 290 289 288 291 296 303 307 310 312 314 316 319 324 331 340 346 349 347 343 336 334 329 320 313 311 314 316 317 315 305 295 288 280 275 271 268 264 257 250 244 244 245 247 252 256 258 257 253 250 249 252 257 257
232 231 232 236 242 245 248 255 259 261 263 267 272 274 274 275 276 276 276 275 273 272 271 271 271 271 272 274 276 277 281 287 288 285 285 290 296 302 305 309 312 313 314 317 324 331 337 342 345 348 348 348 344 334 326 321 320 325 331 333 324 307 301 294 278 273 273 277 276 263 250 233 230 233 237 246 251 253 254 253 252 251 256 259 257
231 231 234 236 239 243 249 254 254 254 256 260 265 267 267 270 275 277 276 276 276 275 273 271 272 271 272 276 278 279 283 286 284 282 284 290 295 299 302 308 312 312 312 316 321 325 329 333 338 341 343 344 338 330 330 328 330 346 355 355 342 323 329 321 278 276 283 284 280 270 266 243 230 232 235 239 243 247 250 251 252 254 259 260 262
230 229 232 235 240 244 249 252 251 251 253 254 259 261 260 264 271 274 274 277 280 281 277 272 271 271 274 278 278 279 282 281 279 281 285 289 293 296 300 306 311 312 313 314 318 320 323 329 333 335 335 334 332 325 325 333 341 351 350 345 340 337 344 336 287 285 285 276 273 270 269 260 250 249 246 245 246 248 249 248 249 253 256 257 263
234 231 232 236 241 244 246 247 246 248 250 252 256 258 258 261 267 271 273 276 279 279 275 271 270 272 275 277 276 278 278 276 277 282 285 288 291 296 300 305 310 313 314 315 318 320 322 327 331 332 331 329 327 315 299 315 322 327 329 327 330 336 342 333 299 274 266 260 261 265 269 264 258 254 250 249 249 249 249 250 251 252 251 253 261
238 238 238 239 240 241 243 244 244 245 248 251 255 258 259 261 264 270 274 276 276 274 272 270 270 273 275 275 275 278 278 277 279 282 284 286 290 294 300 304 307 311 315 317 319 321 323 327 329 330 329 326 322 304 282 297 304 310 317 318 322 331 334 328 308 275 260 251 250 255 263 265 260 257 253 250 252 253 256 260 263 263 259 257 262
238 240 241 240 239 238 240 242 242 244 248 253 255 257 259 261 265 269 272 272 271 271 271 270 271 274 275 273 274 278 280 280 281 282 282 284 288 292 297 301 303 307 312 315 318 321 323 325 327 327 326 322 318 300 280 288 296 301 309 313 318 325 324 318 310 291 268 253 249 252 260 266 265 264 265 264 264 266 268 271 274 276 275 272 270
236 238 240 240 239 238 240 242 244 246 251 254 255 256 257 260 263 266 267 268 268 268 269 270 271 272 272 271 272 277 280 282 282 281 281 282 286 290 294 297 298 302 306 309 312 316 320 322 325 326 323 317 312 299 284 287 293 298 305 311 314 318 316 311 311 304 277 259 254 254 258 264 267 268 270 271 270 269 270 273 275 277 277 276 275
234 236 238 239 239 241 243 245 247 249 252 254 255 256 257 258 260 261 263 264 265 266 269 272 272 270 270 270 273 276 278 280 280 280 280 282 286 289 292 294 295 297 300 302 305 310 314 318 323 325 321 315 309 298 290 294 299 299 303 308 311 312 311 309 311 308 291 272 264 261 260 263 264 265 266 269 270 271 272 274 277 278 277 277 276
232 234 236 238 240 242 244 245 246 248 251 254 255 256 256 257 258 259 260 261 263 265 269 272 272 270 271 273 275 277 278 278 279 279 279 281 285 288 289 291 293 294 296 298 300 304 309 315 320 323 319 313 307 298 296 303 307 305 304 307 308 307 304 304 308 307 300 292 287 281 273 267 265 262 262 264 267 270 272 275 278 280 281 281 278
230 231 233 237 239 240 242 243 245 247 249 253 256 257 258 258 259 261 261 261 262 265 268 270 271 272 273 275 278 279 279 280 279 279 279 281 284 286 288 289 290 291 294 296 298 302 307 312 316 317 315 311 305 299 301 308 312 310 308 308 306 304 300 297 300 303 304 302 297 291 283 277 272 267 264 263 264 267 270 272 274 275 276 276 274
228 229 231 234 237 239 240 242 244 246 248 251 255 257 258 259 261 262 263 264 266 268 270 272 274 274 275 277 279 280 281 281 280 279 279 281 284 286 287 288 289 291 293 295 298 302 306 309 311 311 310 307 302 299 301 308 311 310 309 309 307 304 299 294 293 295 301 302 297 289 281 275 272 270 267 266 266 267 269 270 270 266 264 266 268
228 228 230 232 235 238 241 243 245 247 249 252 254 257 258 259 261 264 267 269 270 272 273 275 275 275 276 278 279 280 281 281 281 280 280 281 283 285 286 288 289 291 293 296 299 301 303 305 306 306 305 303 299 296 298 303 306 307 307 308 307 306 302 297 292 289 290 295 295 290 278 266 262 261 260 261 261 260 261 262 261 258 256 257 260
230 227 228 231 234 236 239 242 245 248 251 253 255 257 259 261 263 266 269 271 272 273 274 274 274 274 276 277 278 279 279 280 281 281 281 281 283 285 287 288 290 291 294 296 298 299 299 300 302 303 303 301 297 294 294 297 299 300 302 303 303 304 304 302 297 291 285 283 285 287 283 274 268 264 261 258 256 256 255 256 257 257 258 259 262
233 230 228 230 234 237 239 241 243 247 251 254 256 259 261 263 265 267 269 272 274 276 276 276 275 276 276 277 278 278 278 279 280 280 280 281 282 284 286 287 289 290 292 294 295 295 295 296 299 301 301 300 295 291 292 293 294 294 294 296 296 297 301 302 300 295 288 280 275 273 276 278 278 278 275 271 268 266 266 266 265 265 266 268 269
Height
10898 10898 10899 10899 10898 10900 10901 10900 10899 10897 10896 10896 10895 10895 10894 10892 10891 10890 10888 10887 10885 10883 10882 10880 10879 10879 10879 10879 10878 10877 10875 10874 10873 10871 10870 10869 10866 10864 10861 10858 10856 10854 10852 10849 10847 10845 10843 10841 10839 10836 10833 10830 10827 10825 10822 10820 10817 10815 10812 10810 10809 10807 10805 10803 10801 10800 10798 10796 10794 10792 10791 10789 10788 10787 10786 10785 10784 10783 10782 10780 10779 10778 10775 10772 10772
10894 10894 10894 10895 10894 10895 10895 10895 10894 10892 10891 10891 10891 10890 10890 10888 10887 10886 10884 10882 10881 10879 10878 10876 10875 10875 10874 10874 10874 10872 10871 10869 10868 10867 10866 10864 10862 10860 10857 10854 10851 10850 10847 10845 10843 10841 10839 10837 10834 10831 10828 10826 10823 10821 10818 10816 10813 10811 10809 10807 10805 10803 10801 10800 10798 10797 10795 10793 10791 10790 10788 10787 10786 10785 10784 10783 10782 10780 10780 10779 10778 10776 10772 10769 10768
10890 10890 10890 10890 10890 10890 10890 10890 10888 10887 10886 10885 10886 10885 10885 10884 10883 10881 10879 10878 10876 10875 10873 10872 10870 10870 10870 10869 10869 10868 10866 10865 10864 10863 10862 10860 10858 10856 10853 10850 10847 10845 10843 10840 10838 10836 10834 10833 10830 10827 10824 10821 10819 10817 10815 10812 10810 10808 10805 10803 10802 10800 10798 10797 10795 10793 10791 10790 10789 10787 10786 10785 10784 10783 10781 10780 10779 10778 10777 10777 10776 10774 10770 10767 10766
10885 10886 10886 10886 10886 10885 10885 10884 10883 10882 10881 10880 10880 10880 10881 10880 10878 10876 10874 10873 10872 10871 10869 10867 10866 10865 10864 10864 10864 10863 10862 10860 10860 10859 10857 10856 10854 10851 10849 10846 10843 10841 10838 10836 10834 10832 10830 10828 10826 10823 10820 10817 10815 10813 10811 10808 10806 10804 10802 10800 10798 10797 10796 10794 10792 10790 10788 10787 10786 10785 10784 10783 10782 10780 10779 10778 10777 10776 10775 10775 10774 10772 10770 10768 10766
10881 10881 10881 10881 10881 10880 10879 10879 10879 10877 10875 10874 10874 10875 10876 10875 10873 10871 10870 10868 10867 10866 10865 10863 10862 10861 10859 10859 10859 10859 10857 10856 10855 10854 10853 10851 10850 10847 10845 10842 10839 10837 10834 10832 10829 10827 10825 10824 10822 10819 10816 10813 10811 10809 10807 10805 10803 10801 10799 10797 10795 10794 10793 10791 10789 10787 10786 10785 10784 10783 10782 10781 10779 10778 10776 10775 10774 10774 10774 10774 10773 10772 10770 10767 10766
10876 10876 10876 10876 10876 10876 10875 10875 10874 10873 10871 10870 10870 10870 10871 10870 10868 10866 10865 10864 10863 10861 10860 10858 10857 10856 10854 10854 10854 10853 10852 10851 10851 10850 10848 10847 10846 10843 10840 10838 10835 10833 10830 10827 10825 10823 10821 10819 10818 10815 10812 10809 10807 10805 10803 10801 10799 10797 10795 10794 10792 10791 10790 10788 10786 10785 10784 10783 10782 10780 10779 10778 10777 10775 10774 10773 10772 10771 10771 10771 10770 10769 10767 10765 10764
10871 10871 10870 10870 10871 10871 10871 10871 10870 10868 10867 10866 10866 10866 10866 10865 10864 10862 10861 10860 10858 10856 10855 10854 10853 10852 10850 10849 10848 10848 10847 10846 10846 10845 10844 10843 10841 10839 10836 10834 10831 10828 10826 10823 10821 10818 10816 10815 10813 10812 10808 10805 10803 10802 10799 10797 10795 10793 10792 10791 10789 10788 10787 10785 10783 10782 10781 10780 10779 10778 10777 10776 10774 10773 10771 10770 10769 10768 10768 10767 10766 10765 10763 10762 10761
10865 10865 10864 10865 10865 10866 10866 10865 10864 10863 10863 10863 10862 10861 10860 10860 10859 10858 10857 10856 10853 10851 10850 10850 10849 10847 10846 10845 10843 10843 10842 10841 10841 10841 10840 10838 10837 10834 10832 10830 10827 10824 10822 10819 10816 10814 10811 10810 10809 10808 10805 10802 10799 10798 10796 10794 10792 10790 10788 10787 10786 10785 10784 10782 10781 10780 10779 10778 10777 10776 10775 10774 10772 10770 10769 10768 10767 10766 10765 10764 10762 10761 10760 10759 10759
10859 10859 10858 10859 10860 10860 10859 10858 10858 10858 10859 10859 10858 10856 10855 10854 10854 10853 10852 10851 10849 10847 10847 10846 10845 10844 10842 10840 10839 10838 10837 10836 10836 10836 10835 10834 10833 10830 10828 10826 10824 10821 10818 10815 10812 10809 10807 10806 10805 10804 10802 10798 10796 10794 10793 10790 10788 10787 10785 10784 10783 10782 10781 10779 10778 10777 10776 10775 10774 10773 10772 10771 10770 10768 10767 10765 10764 10763 10762 10761 10760 10758 10757 10757 10757
10853 10853 10852 10853 10854 10854 10853 10853 10853 10854 10855 10855 10854 10852 10850 10849 10848 10848 10846 10845 10844 10843 10843 10842 10841 10840 10838 10836 10835 10834 10833 10832 10832 10832 10832 10831 10829 10825 10823 10822 10820 10817 10814 10811 10808 10805 10803 10802 10801 10800 10799 10795 10792 10791 10790 10787 10785 10784 10782 10781 10780 10779 10778 10777 10776 10775 10774 10773 10772 10771 10770 10769 10768 10766 10765 10763 10762 10760 10759 10758 10757 10756 10755 10755 10755
10846 10846 10846 10847 10847 10847 10847 10847 10849 10850 10850 10850 10849 10847 10845 10844 10843 10842 10840 10839 10838 10838 10838 10837 10836 10835 10834 10832 10831 10830 10829 10828 10828 10828 10828 10827 10825 10821 10819 10818 10816 10813 10810 10807 10804 10801 10799 10797 10797 10796 10795 10792 10789 10787 10786 10784 10782 10781 10779 10778 10777 10776 10775 10774 10773 10773 10772 10771 10770 10769 10767 10766 10765 10764 10763 10761 10759 10758 10757 10755 10755 10754 10753 10752 10753
10840 10839 10839 10840 10841 10841 10842 10843 10845 10845 10845 10844 10843 10842 10841 10839 10838 10836 10835 10834 10833 10833 10832 10831 10831 10830 10830 10828 10827 10826 10825 10825 10824 10824 10824 10824 10820 10817 10815 10814 10812 10810 10806 10803 10800 10797 10795 10793 10792 10792 10792 10790 10786 10783 10782 10781 10780 10778 10777 10775 10775 10774 10773 10772 10771 10770 10770 10769 10768 10767 10765 10764 10763 10762 10760 10759 10757 10756 10755 10753 10752 10751 10750 10750 10750
10833 10833 10833 10834 10835 10835 10837 10838 10840 10840 10839 10838 10837 10836 10836 10835 10833 10832 10830 10829 10829 10828 10827 10826 10826 10825 10825 10824 10823 10822 10821 10821 10820 10820 10820 10820 10817 10813 10811 10810 10808 10806 10803 10799 10796 10793 10791 10790 10788 10788 10788 10787 10784 10781 10779 10778 10777 10775 10774 10773 10772 10771 10770 10770 10769 10768 10767 10766 10766 10765 10763 10762 10761 10759 10758 10757 10755 10754 10753 10751 10750 10749 10748 10748 10748
10827 10827 10828 10829 10829 10830 10832 10833 10834 10834 10833 10832 10831 10831 10830 10830 10829 10827 10826 10825 10824 10823 10822 10822 10821 10821 10821 10820 10819 10818 10817 10817 10816 10816 10816 10815 10813 10810 10808 10806 10804 10802 10799 10796 10793 10790 10788 10786 10784 10783 10784 10784 10781 10778 10776 10775 10774 10773 10771 10770 10769 10769 10768 10767 10767 10766 10765 10764 10763 10762 10761 10760 10759 10757 10756 10755 10753 10752 10750 10750 10748 10747 10746 10746 10746
10821 10822 10822 10824 10825 10826 10828 10828 10828 10827 10827 10826 10826 10826 10825 10824 10824 10823 10822 10821 10819 10818 10818 10817 10817 10817 10816 10816 10815 10814 10813 10812 10812 10811 10811 10810 10809 10807 10805 10802 10800 10798 10796 10793 10790 10787 10784 10782 10780 10779 10779 10780 10778 10776 10774 10772 10772 10771 10769 10768 10767 10766 10766 10765 10764 10763 10762 10761 10760 10759 10758 10757 10756 10755 10754 10752 10751 10750 10748 10748 10747 10745 10745 10744 10744
10816 10816 10817 10819 10821 10822 10822 10822 10822 10821 10821 10821 10821 10820 10819 10819 10818 10818 10817 10816 10815 10814 10814 10814 10814 10813 10812 10811 10810 10810 10809 10808 10807 10806 10805 10805 10804 10803 10801 10799 10797 10795 10792 10790 10787 10784 10781 10778 10777 10775 10775 10775 10775 10774 10772 10770 10769 10768 10766 10765 10765 10764 10763 10762 10762 10761 10760 10759 10758 10757 10756 10755 10754 10753 10751 10750 10749 10748 10746 10746 10745 10744 10743 10742 10742
10810 10811 10812 10814 10816 10817 10817 10816 10815 10815 10815 10815 10815 10814 10814 10813 10812 10812 10811 10811 10810 10810 10811 10810 10810 10809 10808 10806 10806 10806 10805 10804 10803 10801 10801 10800 10799 10798 10797 10796 10793 10791 10788 10786 10783 10780 10777 10775 10773 10772 10771 10771 10772 10771 10770 10768 10766 10765 10764 10763 10762 10762 10761 10760 10759 10758 10758 10757 10756 10754 10753 10752 10751 10750 10749 10748 10746 10745 10744 10744 10743 10742 10741 10740 10740
10804 10805 10807 10809 10810 10811 10810 10810 10809 10809 10809 10809 10808 10808 10808 10807 10806 10805 10805 10805 10805 10806 10806 10806 10805 10804 10803 10802 10802 10801 10801 10799 10798 10797 10796 10795 10795 10794 10793 10792 10790 10787 10785 10782 10779 10777 10774 10771 10770 10769 10768 10768 10768 10768 10768 10766 10764 10763 10761 10760 10760 10759 10758 10757 10757 10756 10755 10754 10753 10752 10751 10750 10749 10748 10746 10745 10744 10743 10742 10742 10741 10740 10739 10739 10739
10798 10799 10801 10803 10804 10804 10804 10804 10804 10803 10803 10803 10802 10802 10802 10801 10800 10799 10799 10800 10800 10800 10801 10801 10800 10799 10798 10798 10798 10797 10796 10795 10793 10792 10791 10791 10790 10789 10788 10788 10786 10784 10782 10779 10776 10773 10771 10768 10766 10765 10764 10764 10764 10765 10765 10764 10761 10760 10759 10758 10757 10756 10755 10754 10754 10753 10752 10752 10751 10750 10749 10747 10746 10745 10744 10743 10742 10741 10740 10739 10739 10738 10737 10737 10737
10793 10794 10795 10796 10797 10798 10798 10798 10798 10797 10797 10797 10797 10796 10795 10795 10794 10794 10794 10794 10794 10795 10795 10795 10794 10794 10793 10793 10793 10792 10791 10790 10788 10787 10786 10786 10785 10784 10783 10783 10782 10781 10779 10776 10773 10770 10767 10765 10763 10761 10761 10760 10760 10761 10761 10761 10759 10757 10756 10755 10754 10753 10753 10752 10751 10750 10750 10749 10748 10747 10746 10745 10744 10743 10742 10740 10740 10739 10738 10737 10737 10736 10736 10735 10735
10789 10789 10790 10790 10791 10791 10791 10792 10791 10791 10791 10791 10790 10790 10789 10788 10788 10788 10789 10789 10789 10790 10790 10789 10789 10789 10789 10789 10789 10788 10786 10784 10783 10782 10781 10780 10781 10780 10779 10778 10777 10777 10775 10773 10770 10767 10764 10761 10759 10757 10756 10756 10756 10756 10757 10757 10756 10755 10753 10752 10751 10750 10749 10749 10748 10747 10747 10746 10745 10745 10744 10743 10742 10740 10739 10738 10737 10736 10736 10735 10735 10734 10734 10733 10733
10784 10785 10785 10785 10784 10784 10785 10785 10785 10785 10785 10785 10784 10784 10783 10783 10783 10783 10783 10783 10784 10785 10784 10784 10785 10785 10785 10785 10785 10783 10781 10780 10779 10777 10777 10776 10776 10776 10776 10774 10773 10772 10771 10769 10766 10763 10760 10758 10756 10754 10752 10752 10751 10752 10752 10753 10753 10751 10749 10748 10747 10746 10746 10746 10745 10744 10744 10743 10742 10742 10741 10740 10739 10738 10737 10736 10735 10734 10733 10733 10732 10732 10732 10731 10731
10779 10780 10779 10778 10777 10777 10778 10779 10779 10780 10780 10779 10778 10778 10777 10777 10777 10777 10777 10777 10779 10780 10780 10780 10781 10781 10781 10781 10781 10778 10776 10776 10775 10773 10772 10771 10771 10771 10771 10771 10769 10768 10766 10765 10763 10760 10757 10754 10752 10750 10749 10748 10747 10747 10748 10748 10748 10747 10746 10744 10744 10743 10742 10742 10742 10741 10741 10740 10740 10739 10738 10738 10736 10735 10734 10733 10732 10731 10731 10730 10730 10730 10729 10729 10729
10774 10774 10774 10772 10771 10771 10772 10773 10774 10774 10774 10773 10772 10771 10770 10770 10770 10770 10771 10772 10774 10775 10776 10776 10777 10777 10778 10778 10777 10774 10773 10772 10771 10770 10768 10767 10766 10766 10766 10766 10765 10764 10762 10760 10759 10757 10754 10751 10749 10747 10745 10744 10743 10743 10744 10744 10744 10743 10742 10741 10740 10739 10738 10738 10738 10738 10738 10738 10737 10736 10735 10734 10733 10733 10732 10731 10730 10729 10728 10728 10728 10727 10727 10727 10727
10769 10769 10768 10767 10765 10766 10767 10768 10769 10769 10768 10766 10765 10764 10763 10763 10764 10765 10766 10768 10769 10770 10771 10772 10773 10773 10773 10774 10772 10770 10770 10769 10767 10766 10764 10763 10762 10761 10761 10761 10761 10760 10758 10756 10754 10753 10751 10748 10746 10744 10742 10741 10739 10739 10739 10740 10739 10739 10738 10737 10736 10736 10735 10735 10734 10735 10735 10735 10734 10733 10732 10731 10730 10730 10729 10728 10727 10727 10726 10726 10725 10725 10725 10725 10725
10764 10764 10762 10761 10761 10762 10763 10764 10764 10763 10761 10760 10758 10757 10757 10758 10759 10760 10762 10763 10765 10766 10767 10767 10768 10768 10768 10768 10768 10767 10766 10765 10763 10762 10760 10758 10757 10756 10756 10756 10756 10756 10754 10753 10750 10748 10746 10744 10742 10740 10738 10737 10736 10735 10735 10736 10735 10735 10734 10734 10733 10733 10732 10732 10731 10731 10732 10731 10730 10729 10728 10728 10727 10727 10726 10725 10724 10724 10723 10723 10723 10723 10723 10723 10724
10759 10758 10756 10755 10756 10757 10758 10759 10759 10758 10756 10754 10753 10752 10753 10753 10754 10756 10758 10759 10761 10762 10762 10762 10762 10762 10763 10763 10762 10762 10761 10760 10759 10757 10755 10753 10752 10752 10751 10751 10751 10751 10750 10749 10747 10744 10742 10740 10738 10736 10735 10733 10732 10731 10731 10732 10732 10731 10730 10730 10730 10730 10730 10729 10729 10728 10728 10727 10727 10726 10725 10725 10724 10723 10723 10722 10722 10721 10721 10721 10721 10721 10721 10721 10722
10754 10752 10750 10750 10751 10752 10753 10754 10753 10752 10750 10749 10748 10749 10750 10750 10751 10753 10754 10755 10756 10757 10757 10757 10756 10756 10757 10757 10757 10757 10756 10755 10754 10752 10751 10749 10748 10747 10747 10747 10747 10746 10746 10744 10743 10740 10738 10736 10734 10732 10731 10729 10728 10728 10728 10728 10728 10727 10727 10727 10727 10727 10727 10727 10726 10725 10725 10724 10724 10723 10722 10722 10721 10720 10719 10719 10719 10718 10718 10719 10719 10719 10719 10720 10720
10749 10746 10744 10745 10746 10747 10748 10748 10748 10746 10744 10743 10743 10744 10746 10747 10747 10748 10749 10750 10751 10752 10752 10751 10751 10751 10752 10752 10752 10752 10752 10751 10749 10748 10746 10745 10744 10743 10742 10742 10742 10742 10741 10740 10738 10736 10734 10732 10730 10728 10727 10726 10725 10725 10724 10724 10724 10724 10724 10723 10723 10724 10724 10724 10723 10723 10722 10721 10720 10720 10719 10719 10718 10717 10716 10716 10716 10716 10716 10716 10717 10717 10718 10718 10718
10742 10739 10738 10740 10742 10743 10742 10742 10742 10740 10738 10737 10738 10739 10740 10741 10742 10742 10743 10745 10746 10746 10746 10746 10746 10747 10747 10747 10747 10747 10747 10746 10745 10744 10742 10741 10740 10739 10739 10739 10739 10738 10737 10736 10734 10732 10730 10728 10726 10725 10724 10723 10722 10722 10721 10721 10721 10721 10721 10721 10721 10721 10721 10721 10720 10719 10718 10717 10717 10716 10716 10716 10715 10714 10713 10713 10713 10713 10714 10714 10715 10715 10716 10716 10717
10733 10730 10731 10734 10737 10738 10737 10736 10735 10733 10732 10732 10732 10733 10734 10736 10736 10737 10738 10739 10740 10741 10741 10741 10741 10742 10742 10743 10743 10743 10742 10742 10741 10740 10739 10737 10736 10736 10735 10736 10736 10735 10734 10732 10730 10728 10726 10725 10723 10722 10721 10720 10720 10719 10718 10718 10718 10718 10718 10718 10718 10718 10717 10717 10716 10716 10715 10714 10713 10713 10712 10712 10712 10711 10710 10710 10711 10711 10712 10712 10713 10713 10714 10714 10715
10726 10725 10727 10730 10731 10731 10730 10729 10727 10726 10726 10727 10727 10729 10730 10731 10732 10732 10734 10734 10735 10736 10736 10736 10737 10737 10738 10738 10738 10738 10738 10738 10738 10737 10736 10735 10734 10733 10733 10733 10733 10732 10731 10730 10728 10726 10724 10722 10720 10719 10719 10718 10717 10717 10716 10716 10716 10715 10715 10714 10714 10714 10714 10713 10712 10712 10711 10710 10710 10709 10709 10708 10708 10708 10708 10708 10708 10709 10710 10710 10711 10711 10712 10713 10713
10725 10727 10727 10729 10728 10723 10722 10721 10719 10720 10721 10722 10723 10725 10726 10727 10727 10728 10729 10729 10730 10731 10731 10732 10732 10733 10734 10734 10734 10734 10735 10735 10734 10734 10733 10732 10731 10731 10731 10731 10731 10730 10729 10727 10726 10724 10722 10720 10718 10717 10716 10716 10715 10715 10714 10714 10713 10712 10711 10711 10710 10710 10710 10709 10708 10708 10707 10707 10706 10705 10705 10705 10705 10705 10705 10706 10706 10707 10708 10709 10709 10710 10710 10711 10711
10726 10729 10728 10729 10725 10717 10715 10714 10713 10715 10716 10717 10719 10721 10722 10723 10723 10724 10724 10725 10726 10726 10727 10727 10728 10729 10730 10730 10730 10731 10731 10731 10731 10731 10730 10730 10729 10729 10729 10729 10728 10728 10727 10725 10724 10722 10720 10718 10716 10715 10714 10714 10713 10713 10712 10711 10710 10708 10707 10707 10707 10707 10706 10705 10704 10704 10703 10702 10702 10702 10701 10701 10701 10702 10702 10703 10704 10705 10706 10707 10708 10708 10709 10709 10710
10726 10728 10727 10725 10719 10710 10709 10710 10709 10710 10711 10713 10715 10717 10718 10718 10719 10720 10720 10721 10721 10722 10723 10724 10725 10725 10726 10726 10727 10727 10728 10728 10728 10728 10728 10727 10727 10727 10727 10726 10726 10725 10724 10724 10723 10721 10719 10716 10714 10713 10712 10711 10711 10710 10709 10708 10706 10705 10704 10703 10703 10703 10702 10700 10700 10699 10698 10698 10698 10699 10699 10699 10699 10699 10700 10701 10702 10703 10704 10705 10706 10706 10707 10708 10708
10721 10724 10723 10716 10710 10707 10706 10705 10704 10706 10708 10710 10712 10713 10714 10714 10715 10715 10716 10716 10717 10718 10719 10720 10721 10722 10722 10723 10724 10724 10725 10725 10725 10726 10726 10725 10725 10725 10724 10724 10724 10723 10722 10721 10721 10719 10717 10715 10713 10712 10710 10709 10708 10707 10706 10705 10703 10702 10700 10700 10699 10698 10697 10696 10695 10695 10694 10695 10695 10696 10696 10697 10697 10698 10699 10699 10700 10701 10702 10703 10704 10704 10705 10706 10707
10712 10716 10714 10707 10704 10705 10704 10701 10701 10703 10704 10706 10708 10710 10710 10710 10710 10711 10712 10713 10714 10715 10716 10717 10718 10719 10719 10720 10721 10721 10722 10722 10723 10723 10723 10723 10722 10722 10722 10722 10721 10720 10719 10719 10718 10717 10715 10714 10712 10711 10709 10707 10706 10705 10704 10702 10700 10699 10698 10697 10696 10695 10693 10692 10692 10692 10692 10692 10693 10694 10695 10695 10695 10696 10697 10698 10698 10699 10700 10701 10701 10702 10703 10704 10705
10704 10706 10704 10700 10700 10701 10699 10697 10699 10700 10701 10703 10705 10707 10707 10707 10707 10708 10709 10709 10711 10712 10713 10714 10715 10715 10716 10717 10718 10719 10719 10720 10721 10721 10721 10721 10720 10720 10720 10720 10719 10718 10717 10716 10716 10715 10714 10713 10712 10710 10709 10707 10705 10704 10702 10700 10698 10697 10697 10696 10694 10692 10691 10691 10690 10690 10690 10690 10691 10692 10693 10693 10694 10695 10695 10696 10696 10697 10698 10698 10698 10700 10701 10702 10703
10698 10699 10698 10696 10695 10695 10694 10693 10696 10697 10698 10700 10701 10703 10703 10703 10704 10705 10706 10707 10708 10710 10711 10711 10712 10713 10714 10715 10716 10716 10717 10717 10718 10719 10719 10719 10718 10717 10718 10717 10717 10715 10714 10714 10713 10713 10712 10711 10711 10710 10708 10706 10705 10703 10701 10698 10697 10697 10696 10695 10693 10691 10691 10690 10689 10688 10688 10688 10689 10690 10691 10691 10692 10693 10693 10694 10694 10695 10695 10695 10696 10697 10698 10699 10700
10691 10693 10692 10691 10690 10690 10690 10689 10692 10693 10695 10697 10698 10699 10699 10700 10700 10701 10703 10704 10706 10707 10709 10709 10710 10711 10711 10712 10713 10714 10714 10715 10716 10716 10716 10716 10715 10715 10715 10715 10714 10713 10712 10712 10712 10711 10710 10709 10709 10708 10707 10705 10704 10702 10700 10698 10696 10696 10695 10694 10692 10691 10690 10689 10687 10687 10687 10687 10687 10688 10688 10689 10690 10691 10691 10692 10692 10692 10692 10693 10694 10695 10696 10697 10698
10686 10687 10687 10687 10687 10687 10686 10686 10687 10689 10691 10693 10695 10695 10695 10696 10697 10698 10700 10702 10704 10705 10706 10707 10707 10708 10709 10710 10710 10711 10712 10712 10713 10713 10713 10713 10713 10712 10712 10712 10712 10711 10710 10710 10709 10709 10708 10707 10706 10706 10705 10704 10702 10700 10699 10697 10696 10695 10694 10694 10692 10690 10689 10687 10686 10686 10685 10685 10685 10686 10686 10687 10688 10689 10689 10690 10690 10690 10691 10691 10692 10693 10694 10695 10695
10681 10682 10682 10683 10683 10683 10683 10683 10684 10685 10687 10689 10691 10692 10692 10693 10694 10695 10697 10699 10701 10702 10703 10704 10705 10706 10706 10707 10708 10708 10709 10709 10710 10710 10710 10710 10710 10710 10709 10709 10709 10708 10707 10707 10707 10706 10705 10704 10704 10703 10703 10702 10700 10699 10697 10696 10694 10694 10693 10692 10691 10690 10688 10686 10685 10684 10684 10684 10684 10684 10684 10685 10686 10686 10687 10688 10688 10689 10689 10690 10690 10691 10692 10693 10693
10675 10675 10676 10678 10679 10679 10679 10679 10680 10682 10683 10686 10688 10689 10689 10690 10691 10692 10694 10697 10699 10700 10701 10702 10702 10703 10704 10704 10705 10705 10706 10706 10707 10707 10707 10707 10707 10706 10706 10706 10706 10706 10705 10704 10704 10704 10703 10702 10701 10701 10700 10699 10698 10697 10696 10694 10693 10692 10692 10691 10690 10688 10686 10685 10684 10683 10683 10683 10682 10682 10683 10683 10683 10683 10684 10685 10685 10686 10687 10687 10688 10689 10689 10690 10691
10669 10669 10670 10672 10674 10674 10675 10676 10677 10679 10680 10682 10684 10685 10686 10686 10688 10689 10691 10694 10696 10696 10697 10699 10699 10700 10700 10701 10701 10702 10703 10703 10704 10704 10704 10703 10703 10703 10703 10703 10703 10703 10702 10702 10702 10701 10700 10700 10699 10698 10697 10697 10695 10694 10694 10692 10691 10690 10690 10689 10688 10686 10684 10683 10683 10682 10681 10681 10681 10681 10681 10681 10681 10681 10681 10682 10683 10683 10684 10685 10686 10687 10687 10688 10688
10663 10664 10665 10666 10668 10669 10671 10672 10673 10674 10675 10677 10679 10680 10681 10683 10684 10686 10688 10690 10691 10692 10694 10695 10696 10696 10696 10697 10698 10699 10699 10700 10700 10700 10700 10700 10700 10699 10699 10700 10700 10700 10699 10699 10699 10698 10698 10697 10696 10695 10694 10694 10693 10692 10691 10690 10689 10688 10688 10687 10687 10685 10682 10680 10680 10680 10680 10679 10679 10679 10679 10679 10679 10679 10680 10680 10680 10681 10681 10682 10683 10684 10684 10685 10684
10659 10660 10660 10660 10662 10664 10666 10668 10669 10670 10671 10672 10674 10675 10676 10678 10680 10682 10684 10686 10687 10688 10690 10691 10692 10692 10693 10693 10694 10695 10696 10696 10697 10697 10697 10697 10696 10696 10696 10696 10697 10696 10696 10695 10695 10695 10695 10694 10693 10692 10692 10691 10690 10689 10689 10688 10687 10686 10686 10685 10685 10683 10681 10679 10678 10678 10678 10677 10677 10677 10677 10677 10677 10677 10678 10678 10678 10678 10678 10679 10679 10679 10679 10679 10679
10654 10656 10656 10656 10657 10660 10662 10663 10664 10666 10666 10668 10669 10670 10671 10673 10675 10678 10680 10681 10682 10684 10686 10687 10688 10688 10689 10689 10690 10691 10692 10692 10693 10693 10693 10693 10693 10693 10693 10693 10693 10693 10692 10692 10691 10691 10691 10690 10690 10689 10689 10688 10687 10687 10686 10686 10685 10684 10683 10683 10682 10681 10679 10678 10676 10676 10675 10675 10675 10674 10674 10674 10674 10675 10675 10675 10675 10675 10675 10676 10676 10675 10675 10674 10675
10648 10651 10652 10652 10653 10655 10657 10659 10660 10661 10662 10663 10664 10665 10667 10669 10670 10673 10674 10675 10678 10680 10681 10682 10683 10684 10685 10685 10686 10687 10687 10688 10688 10689 10690 10690 10689 10689 10689 10689 10690 10689 10689 10688 10688 10687 10687 10687 10686 10686 10686 10685 10685 10684 10683 10683 10682 10682 10681 10680 10679 10678 10677 10676 10674 10674 10673 10673 10672 10672 10672 10671 10671 10672 10672 10672 10672 10672 10672 10672 10672 10673 10672 10672 10671
10643 10646 10648 10649 10650 10651 10653 10654 10655 10657 10658 10659 10660 10661 10662 10664 10665 10668 10669 10670 10673 10675 10677 10678 10679 10680 10680 10681 10681 10682 10683 10684 10684 10685 10685 10686 10686 10685 10685 10685 10685 10685 10685 10684 10684 10683 10683 10683 10683 10683 10682 10682 10681 10681 10680 10680 10680 10679 10679 10678 10677 10676 10675 10673 10672 10671 10670 10670 10670 10670 10669 10669 10669 10669 10669 10669 10669 10669 10669 10668 10668 10669 10669 10668 10668
10639 10641 10643 10645 10646 10648 10649 10651 10651 10653 10653 10654 10656 10657 10658 10660 10662 10663 10664 10665 10668 10670 10672 10674 10674 10675 10676 10676 10677 10678 10679 10680 10680 10681 10682 10682 10682 10682 10682 10681 10681 10681 10681 10681 10680 10679 10679 10679 10679 10679 10679 10678 10678 10678 10677 10677 10677 10677 10676 10676 10674 10673 10672 10671 10669 10668 10667 10667 10667 10667 10667 10667 10666 10666 10666 10666 10666 10665 10665 10665 10664 10664 10664 10664 10663
10634 10636 10638 10640 10642 10644 10646 10647 10648 10649 10649 10650 10651 10653 10654 10655 10657 10658 10659 10661 10663 10665 10667 10668 10669 10670 10671 10671 10672 10673 10675 10675 10676 10677 10677 10678 10678 10678 10677 10677 10677 10677 10677 10676 10676 10675 10675 10675 10675 10675 10675 10675 10674 10674 10674 10674 10674 10674 10673 10673 10672 10671 10670 10668 10667 10665 10664 10663 10663 10663 10663 10663 10663 10663 10663 10663 10662 10662 10661 10661 10661 10660 10660 10659 10659